CARTOSAT-2D

Last updated on Wed Dec 17 2025 00:02:34 GMT+0000 (Coordinated Universal Time)

1 41948U 17008A 25350.32160804 .00003845 00000+0 18538-3 0 9998 2 41948 97.4388 47.7653 0004991 151.9807 208.1697 15.19295425489819
UTC large
Height (km)
Speed (km/s)
/
Latitude / Longitude
Inclination (degrees)
Orbital Period (minutes)
Azimuth
Elevation
Range (km)
Doppler Factor

Next 0 passes for location: London (51.5072 / 0.1276)

Sorry there are no passes over London.